{"data":{"norad_id":66859,"intl_designator":"2025-281M","name":"STARLINK-35646","alt_names":[],"object_type":"PAYLOAD","status":"ACTIVE","operator":null,"country":"US","launch_date":"2025-12-02","launch_site_code":"AFETR","launch_vehicle":null,"mission":null,"orbit_class":"UNKNOWN","rcs_meters":null,"size_class":null,"mass_kg":null,"dimensions":null,"purposes":["comms"],"wikipedia_slug":null,"has_3d_model":false,"image_url":null,"decayed_at":null,"tle_current":{"epoch":"2026-09-20T04:56:00.441888Z","epoch_age_seconds":109555,"freshness":"FRESH","line1":"1 66859U 25281M   26263.20556067  .00008094  00000+0  30327-3 0  9990","line2":"2 66859  43.0018 325.0009 0001505 276.7258  83.3422 15.27584694 45933","mean_motion":15.27584694,"eccentricity":0.0001505,"inclination_deg":43.0018,"raan_deg":325.0009,"arg_perigee_deg":276.7258,"mean_anomaly_deg":83.3422,"bstar":0.00030327,"rev_number":4593,"period_min":94.266459048457,"perigee_km":482.00243415889,"apogee_km":484.06764694309,"semimajor_km":6861.172040551,"source":"CELESTRAK","updated_at":"2026-09-21T09:00:36.028020Z"}}}